RH
77 65 74 104 102 85 84 88 88 88 88 82 79 79 70 63 56 51 47 45 43 34 32 35 39 44 39 39 46 45 49 53 46 34 40 54 43 62 84 45 45 88 92 94 101 99 103 102 104 105 101 102 93 85 93 99 98 97 99 102 101 99 99 91 70 51 41 36 37 39 41 46 49 46 45 48 49 49 50 54 57 62 63 57 55
64 63 80 98 92 86 85 85 89 93 98 96 93 89 76 65 56 48 46 41 39 39 44 49 41 33 27 27 30 27 30 28 24 27 29 37 34 31 41 31 31 56 71 87 101 101 102 102 101 102 103 100 93 94 98 101 101 93 91 97 99 101 102 96 82 65 52 45 46 47 43 39 39 41 45 45 44 46 50 55 60 69 72 65 64
56 66 83 90 91 95 86 76 84 94 102 103 100 97 82 68 56 48 47 40 40 51 53 46 34 27 25 23 22 20 20 19 17 21 20 22 28 23 23 24 28 58 88 96 101 102 99 101 102 101 103 98 95 95 95 103 99 87 93 99 97 101 103 102 99 85 71 65 64 57 45 35 33 35 38 37 37 40 46 52 59 65 68 66 68
70 84 96 96 98 102 90 79 84 92 102 106 103 99 86 74 64 54 52 45 41 45 41 34 29 26 26 24 24 22 20 22 20 20 20 19 21 22 24 23 24 56 96 102 98 100 99 101 100 101 103 98 97 92 95 106 89 74 93 102 97 101 101 101 105 101 92 84 84 80 64 47 39 38 36 34 34 35 39 43 49 55 58 62 65
93 100 101 99 105 104 90 79 78 86 101 108 104 98 88 80 74 64 58 52 44 42 37 34 32 29 30 28 26 25 23 23 23 22 22 21 21 21 22 23 22 40 80 102 101 100 100 101 101 102 101 99 101 97 99 102 82 80 102 103 99 101 99 101 101 103 102 93 92 98 96 78 60 51 47 45 38 34 38 41 45 51 54 59 60
96 102 104 101 97 82 69 67 70 82 100 108 105 99 90 83 80 73 64 53 46 44 41 37 36 34 34 32 28 26 26 24 24 23 22 21 22 22 20 23 23 28 55 83 97 102 100 100 102 101 100 100 100 100 103 95 82 94 109 103 100 101 100 101 99 101 105 100 96 99 104 101 88 70 57 53 45 35 40 43 46 54 57 61 58
100 103 97 85 72 58 56 65 75 88 99 106 106 98 89 84 81 76 66 55 48 46 44 41 41 39 36 33 30 28 27 26 25 24 24 23 22 22 21 22 24 26 40 63 89 102 100 101 102 100 102 100 94 98 103 96 89 98 104 100 101 100 100 100 99 103 106 103 102 101 101 101 101 92 74 64 52 39 41 47 51 60 64 63 59
73 73 68 63 61 60 64 73 88 100 103 103 102 94 86 83 81 76 66 56 51 49 47 45 44 40 37 33 30 29 28 28 27 25 24 24 23 23 21 21 24 28 35 56 84 99 100 102 101 100 103 98 95 100 101 98 97 99 100 101 101 98 99 100 99 103 105 103 103 103 101 99 102 103 92 81 70 54 46 48 55 64 67 63 59
52 55 57 60 62 63 73 88 100 107 105 101 97 90 85 83 82 75 66 59 55 51 49 48 46 41 37 33 31 31 30 29 29 28 26 25 24 23 21 21 24 26 27 47 81 98 99 102 101 100 102 99 99 101 100 99 100 100 101 100 101 100 100 100 100 102 105 105 105 102 99 100 102 101 97 94 94 85 64 49 55 66 66 61 54
68 70 71 72 72 71 84 101 108 108 105 100 94 88 85 86 83 74 68 64 57 54 53 50 46 41 36 34 33 33 31 31 31 29 29 27 26 25 23 21 22 25 24 37 73 97 100 102 101 100 102 103 102 100 100 100 99 102 104 100 98 98 100 100 99 102 102 98 101 103 99 101 102 100 94 80 73 81 73 55 57 67 64 56 48
87 91 92 91 91 92 99 105 107 109 104 97 93 89 87 87 83 75 72 68 60 58 57 52 46 41 37 36 35 34 32 32 31 31 29 29 31 32 28 23 19 23 26 34 62 88 97 102 101 100 102 104 104 101 100 100 99 101 103 101 97 96 101 101 99 104 101 89 92 101 101 100 102 102 93 66 44 56 72 67 64 67 64 55 47
93 100 104 99 95 99 106 105 104 106 103 100 98 95 94 91 84 78 75 72 67 64 59 52 47 42 38 37 36 34 33 31 30 30 29 28 30 32 33 31 24 20 24 33 50 69 85 99 102 101 102 103 104 101 100 101 100 99 101 100 97 97 100 99 101 105 98 91 95 102 102 100 103 105 94 68 44 49 76 88 81 72 65 59 49
97 102 107 99 93 98 104 103 102 103 101 102 102 100 100 96 89 83 78 75 72 68 60 52 47 43 39 38 36 33 32 32 30 29 30 28 27 27 31 39 34 22 20 26 36 49 65 79 89 98 102 102 103 101 101 103 100 99 102 100 99 102 101 101 104 95 85 92 102 102 102 99 104 110 97 72 52 56 85 103 97 81 71 64 53
99 101 104 96 92 97 101 102 100 100 101 100 100 102 103 99 92 85 80 78 75 69 61 53 48 44 40 38 36 33 32 32 31 29 29 28 28 25 26 32 34 29 25 21 24 37 53 66 81 97 101 100 104 103 102 104 101 99 101 100 100 98 91 93 94 78 74 95 104 98 100 101 103 111 103 82 63 62 84 102 102 92 80 71 58
97 96 100 94 88 88 94 101 101 100 101 100 100 102 102 99 94 89 85 80 75 69 62 55 51 44 40 38 35 32 32 33 32 30 29 28 28 27 24 25 30 37 35 26 23 32 50 75 94 100 100 99 103 104 103 104 101 99 100 100 98 87 77 81 82 70 76 97 102 97 100 102 105 111 101 77 55 53 75 98 104 99 87 77 65
93 90 94 96 92 85 85 95 103 102 100 100 101 101 101 100 97 93 87 79 75 71 64 57 51 45 40 38 35 33 32 32 31 29 29 29 28 28 26 23 24 32 34 27 23 26 48 85 104 101 100 100 102 106 109 108 103 100 100 100 101 94 89 91 85 79 88 100 99 98 102 101 105 112 97 68 52 58 79 99 104 101 93 82 71
86 80 82 89 95 92 88 91 98 103 101 100 101 101 101 102 100 92 84 79 77 73 66 59 51 46 41 38 37 35 32 32 30 29 29 29 29 29 28 25 22 28 40 39 27 27 56 92 103 101 101 101 103 106 107 107 105 102 100 100 102 98 94 94 93 95 100 102 100 99 101 101 102 107 99 79 73 82 93 102 104 101 97 90 81
81 72 67 72 84 93 92 88 90 99 102 100 100 101 101 102 97 89 83 81 78 73 66 58 51 46 42 40 38 35 33 32 31 30 29 28 29 29 28 26 21 25 44 54 38 33 68 99 101 100 102 101 105 105 101 104 104 100 101 101 102 99 94 95 97 90 83 92 104 101 99 103 101 103 101 92 91 96 99 102 102 101 100 97 89
70 66 58 59 74 87 90 86 85 93 100 101 101 101 101 101 96 90 86 82 78 73 66 58 53 48 44 42 38 35 35 34 32 31 30 29 29 30 29 25 22 20 30 46 40 36 71 102 101 100 102 100 103 101 100 105 103 99 101 100 101 101 99 100 95 73 58 77 102 101 99 103 101 103 102 91 87 93 99 100 101 102 101 98 94
66 67 56 52 61 74 84 87 86 93 101 103 102 101 101 100 97 93 88 83 79 75 68 61 56 51 47 43 38 36 35 34 34 33 31 30 28 30 30 23 22 21 22 40 45 35 63 98 101 100 103 102 102 99 99 103 102 101 101 100 101 100 99 101 98 86 77 90 103 100 100 102 100 104 103 94 89 93 99 100 100 102 100 100 99
69 68 61 56 54 58 73 87 92 97 102 103 101 101 101 99 97 94 88 85 83 79 73 67 60 53 49 43 37 37 37 35 37 35 33 32 29 30 31 22 20 21 31 60 61 34 51 93 104 102 103 103 102 99 99 101 100 100 101 101 101 100 100 100 100 100 98 101 103 99 100 102 100 102 102 99 98 97 99 100 100 103 102 101 101
65 62 60 58 53 50 60 79 93 98 100 102 102 101 101 99 98 94 90 89 89 84 78 71 62 56 50 44 39 37 38 38 39 38 36 33 30 30 29 22 18 21 50 92 78 33 50 94 104 103 103 102 102 100 99 101 99 100 102 101 101 100 101 101 100 100 99 100 101 99 101 100 99 102 102 99 99 98 100 100 99 102 102 101 101
81 77 67 58 55 52 53 66 88 99 101 103 102 98 97 98 97 94 93 95 92 86 81 73 65 59 52 46 41 38 39 41 41 40 39 35 32 32 28 22 17 18 54 105 92 48 64 100 103 100 102 100 101 101 100 99 100 101 100 99 101 101 101 101 100 99 100 101 101 99 101 100 99 102 101 99 98 99 101 100 99 101 101 103 103
96 89 71 57 56 56 54 58 76 96 104 104 102 98 96 96 95 95 96 96 93 89 82 73 66 63 56 49 44 41 41 44 44 43 42 38 33 32 29 22 18 15 37 85 101 82 86 103 102 100 100 100 102 101 99 100 100 100 99 99 100 101 101 101 100 100 100 102 102 101 100 100 101 102 101 100 100 101 102 101 100 100 100 102 102
92 82 68 59 57 57 56 56 64 85 102 105 103 101 97 95 96 97 98 98 95 89 80 73 70 66 60 53 48 45 44 46 48 46 43 40 34 33 31 22 18 17 20 50 88 103 103 102 102 102 101 101 102 101 100 101 100 100 101 100 99 100 101 101 100 100 101 100 100 101 100 99 100 101 101 100 100 102 102 100 100 99 101 102 99
87 76 69 66 63 62 61 59 63 80 97 103 103 102 100 98 97 98 98 96 93 87 78 76 76 70 65 59 52 49 47 48 50 49 46 43 37 34 33 24 17 18 18 28 56 87 103 104 101 102 102 100 99 100 102 102 102 102 101 99 99 100 101 100 100 101 101 100 99 100 100 99 99 100 101 101 101 102 100 99 101 98 99 96 90
92 86 84 79 71 66 63 60 64 76 91 98 100 101 100 99 97 96 95 93 89 85 81 80 79 74 69 63 56 52 50 50 53 53 49 46 40 36 34 27 19 17 20 23 30 54 90 108 103 99 102 101 98 100 102 102 102 101 99 99 100 102 102 100 100 101 101 100 101 100 100 99 99 99 101 103 102 99 97 101 102 98 98 93 87
102 101 100 89 73 64 60 58 60 70 86 96 98 101 100 97 96 96 95 94 89 85 83 82 81 77 72 66 59 56 54 55 57 55 52 48 43 41 37 30 23 17 19 24 24 39 82 109 105 99 101 101 100 100 100 101 101 99 99 100 101 102 103 100 99 101 100 100 102 102 100 99 99 100 102 103 101 97 97 101 102 101 100 97 95
107 104 101 91 75 64 60 59 61 69 85 96 99 102 101 99 100 101 100 98 92 87 85 83 81 79 74 69 64 61 59 59 59 56 53 49 44 43 41 34 27 19 19 23 24 43 85 107 102 100 102 100 101 101 99 100 100 98 99 100 100 102 102 100 100 101 100 100 102 103 101 99 99 100 101 101 99 99 100 100 101 102 100 98 98
107 102 99 92 80 73 68 66 69 77 87 96 99 100 101 101 102 104 103 99 95 90 87 86 85 81 76 72 69 68 66 62 60 56 52 50 46 44 44 40 32 23 21 23 22 41 82 105 101 98 101 100 101 101 101 100 98 98 101 101 100 103 103 100 101 101 100 101 102 101 102 100 99 100 101 101 100 100 102 101 101 102 100 99 99
96 95 95 89 80 75 74 73 76 80 87 95 98 99 99 99 100 102 102 100 97 95 91 90 88 83 77 75 73 73 70 64 61 58 53 50 48 45 45 45 39 27 22 24 22 28 58 90 101 101 99 100 101 101 102 102 99 99 104 105 101 99 100 101 102 100 99 101 101 100 100 100 100 101 101 101 101 101 102 101 101 101 100 100 101
91 94 92 86 81 77 73 72 73 75 81 90 95 97 97 97 100 101 101 100 99 97 94 90 88 83 78 77 76 74 71 68 65 61 55 51 49 46 45 47 45 36 25 24 25 23 32 57 81 96 101 100 100 102 103 102 98 95 100 107 103 97 98 101 101 101 100 100 100 100 100 101 102 101 100 100 100 101 102 101 100 101 101 101 101
99 99 92 88 88 83 75 72 70 71 78 86 90 93 94 95 97 98 98 100 100 97 94 90 87 83 79 79 79 75 73 72 69 63 56 53 49 46 45 46 47 44 34 26 27 27 25 31 45 66 87 99 102 103 104 105 101 94 98 107 103 98 100 102 101 102 102 99 99 100 100 101 101 100 100 101 101 100 101 101 100 100 100 101 101
103 101 95 93 93 89 83 77 74 74 78 83 87 90 92 92 93 95 97 99 99 96 94 91 87 83 81 80 78 77 77 76 70 63 58 55 51 47 44 44 47 49 43 34 31 30 29 28 28 38 62 88 102 103 102 104 100 93 94 100 99 99 102 102 102 102 101 100 98 99 102 101 99 100 100 100 101 101 100 101 101 100 100 100 101
105 100 97 100 102 99 91 82 78 77 78 84 89 92 93 92 93 96 96 97 97 96 94 92 87 83 81 79 78 79 79 75 69 65 62 57 53 49 45 43 46 49 49 44 40 39 37 32 28 28 41 64 85 95 100 104 97 82 74 77 86 99 104 102 102 101 99 100 99 98 102 102 99 100 102 101 102 104 102 100 100 100 101 101 100
105 100 98 101 103 100 92 82 80 81 83 90 97 98 98 96 94 94 93 92 94 95 92 89 85 83 81 79 80 81 78 74 70 67 64 60 56 52 48 45 45 47 50 49 46 49 53 50 40 30 29 38 52 65 81 97 96 79 63 61 72 92 104 103 103 101 98 100 101 99 100 101 100 102 104 103 104 105 102 99 99 100 100 100 101
102 98 98 100 99 97 92 87 88 92 94 98 101 101 99 95 92 91 89 89 91 91 88 86 85 85 85 83 83 79 76 73 70 68 66 62 58 55 52 50 47 46 48 51 49 49 60 72 67 49 35 33 36 40 54 78 90 75 61 64 77 91 103 105 101 101 100 101 101 100 98 99 102 105 104 101 101 104 103 99 98 100 100 100 101
98 96 99 102 101 98 96 95 97 99 101 102 102 100 97 94 92 91 89 89 90 89 89 89 89 89 88 85 82 79 75 73 70 68 66 62 60 58 54 52 50 47 47 50 52 48 51 71 87 79 57 41 39 43 47 62 77 67 55 71 93 99 100 103 101 100 102 102 101 100 100 101 103 104 103 100 100 102 102 100 98 99 100 100 99
95 96 100 100 97 95 95 96 96 96 98 101 101 100 98 97 96 94 92 92 92 92 92 91 90 89 86 84 81 78 74 71 68 67 65 63 62 60 57 53 50 50 48 48 53 53 46 54 77 94 89 65 49 51 52 53 59 55 52 74 100 102 98 101 102 100 101 102 101 100 101 102 101 101 101 101 101 100 99 100 99 100 102 101 100
96 97 95 91 90 91 93 93 91 92 95 99 101 101 101 100 99 97 96 95 94 93 92 90 89 87 84 82 79 75 72 70 68 67 65 64 63 60 59 56 51 49 49 48 51 55 52 47 52 74 96 94 72 58 57 56 49 45 58 85 101 100 99 101 101 101 102 100 97 98 100 100 100 101 101 100 101 101 100 100 100 101 103 102 102
92 91 89 89 91 93 93 92 92 94 96 98 100 100 99 99 99 97 95 94 92 91 90 88 86 84 81 79 76 73 71 69 67 67 66 65 64 60 58 57 53 50 49 50 50 52 54 51 45 47 69 94 95 74 61 62 54 42 59 94 105 98 99 102 100 101 104 100 93 94 99 101 100 100 102 102 102 102 103 102 100 101 102 101 102
89 88 89 92 95 94 92 91 93 94 95 95 96 97 97 97 96 95 93 91 89 87 85 83 81 79 77 75 73 71 69 68 67 67 66 63 62 60 57 55 53 51 50 51 52 51 52 53 50 43 44 67 95 93 71 64 63 53 59 89 105 100 98 102 101 101 102 101 98 96 100 102 101 100 102 102 100 101 103 102 100 100 102 102 101
88 88 89 91 92 90 87 88 91 92 93 94 94 95 95 94 93 91 88 85 82 80 79 78 76 75 73 72 71 69 68 68 66 64 62 60 58 57 56 53 52 52 53 54 53 51 51 51 51 50 42 43 70 96 90 72 65 63 65 80 98 103 100 99 101 102 102 101 101 99 100 101 100 101 102 101 100 100 101 103 103 102 102 102 102
86 87 89 90 91 90 89 91 93 93 94 94 94 93 92 90 88 86 83 81 79 77 75 74 72 71 70 69 69 68 66 65 63 59 57 56 54 53 53 53 54 55 56 57 55 51 50 49 48 50 49 40 44 72 96 91 73 64 66 74 86 97 102 100 100 101 102 102 101 100 100 100 100 100 101 101 101 103 104 108 110 107 103 103 105
85 87 89 91 93 94 95 95 95 94 94 93 91 90 89 88 86 84 82 79 77 74 73 71 69 68 68 67 66 65 62 59 57 54 52 51 51 52 54 55 57 59 58 58 57 53 49 49 48 47 50 48 39 45 72 95 91 74 64 67 76 88 98 102 102 100 100 102 102 101 98 95 95 99 101 102 105 107 109 110 110 107 104 103 106
87 88 91 94 95 97 97 95 94 93 91 90 89 88 87 85 83 81 79 77 75 74 72 70 69 68 67 64 61 58 55 52 51 51 51 51 53 54 54 55 55 55 55 55 55 54 50 48 48 47 48 51 47 39 45 71 94 94 77 65 68 80 93 102 104 102 101 101 101 103 101 94 88 88 94 102 107 107 105 104 104 106 106 104 103
90 92 94 97 98 98 97 95 93 92 91 90 88 85 83 81 79 77 76 75 74 73 71 69 67 64 60 57 55 52 51 50 50 52 54 55 56 55 54 54 52 51 52 53 53 54 53 49 47 48 49 50 52 49 40 44 68 93 96 82 68 69 83 98 102 100 101 102 101 101 103 100 92 84 84 92 101 103 101 100 101 103 104 103 102
90 91 92 95 95 94 92 91 90 89 87 85 83 81 80 79 77 76 76 74 72 69 66 62 59 55 53 52 51 52 53 54 55 57 57 56 55 52 48 46 44 42 42 44 47 50 54 54 52 50 49 50 52 55 52 42 43 63 88 98 88 72 70 84 97 99 99 100 101 101 101 101 99 94 89 91 96 99 100 100 100 100 102 102 101
87 87 87 87 87 86 85 85 83 82 81 81 80 80 79 78 77 75 72 69 65 61 58 55 53 53 52 52 54 56 58 59 56 51 46 40 36 33 31 29 28 27 27 28 31 35 41 48 53 53 53 53 52 53 57 55 45 42 56 81 98 94 77 71 81 94 99 100 100 100 101 101 102 101 99 97 97 98 99 100 100 100 100 100 100
85 85 84 83 83 83 83 83 82 82 82 82 81 79 77 74 71 67 63 60 58 56 56 55 55 55 56 58 59 57 52 47 40 34 28 25 23 22 23 22 22 22 23 22 23 24 27 31 38 44 48 52 54 55 56 58 57 49 43 51 73 94 97 84 74 77 89 100 104 102 99 100 101 101 102 101 100 100 100 100 100 100 100 100 100
84 84 84 84 84 84 84 83 82 81 79 77 74 71 67 64 61 59 58 58 59 59 59 60 61 62 60 56 49 41 34 29 26 25 25 24 23 22 21 21 21 21 22 23 23 23 24 24 26 30 34 38 44 50 53 57 59 59 53 45 48 66 89 99 91 79 76 83 95 102 103 101 100 101 102 102 101 100 100 100 100 100 100 100 100
Wind_Speed
53 51 49 48 48 46 45 45 44 44 44 44 44 45 44 42 40 38 38 39 40 42 44 44 45 46 46 47 49 50 51 52 54 55 54 54 52 49 49 46 46 49 47 44 42 40 37 35 37 40 38 35 30 28 28 28 27 25 27 31 28 22 20 20 22 23 23 22 22 23 24 24 24 23 22 23 23 24 25 25 26 27 28 29 30
51 51 51 51 51 49 47 45 45 45 45 44 44 44 42 41 40 38 38 39 38 39 41 43 45 47 49 50 52 53 55 56 56 55 54 55 54 54 54 51 48 49 49 49 44 39 37 36 38 41 38 34 30 27 28 29 28 27 28 29 26 21 19 21 23 23 23 23 24 24 23 24 24 24 24 23 22 23 24 25 26 27 28 30 30
52 53 54 54 54 51 47 45 46 47 46 44 43 43 42 41 41 40 39 39 38 38 41 44 47 48 49 50 51 52 53 54 53 52 52 51 51 52 53 51 49 49 49 51 45 37 36 37 38 40 38 34 31 29 30 31 28 27 27 26 27 25 22 22 22 22 23 24 25 25 24 24 24 25 25 23 22 22 24 25 25 27 29 31 32
52 55 54 52 50 49 47 46 46 48 47 46 45 44 43 43 42 41 40 40 40 41 43 45 46 46 46 47 47 47 47 48 48 49 49 48 48 49 50 50 51 52 50 50 47 38 36 39 40 41 40 37 34 32 33 33 29 27 26 27 30 29 27 24 22 22 22 24 26 27 25 25 26 26 25 23 22 21 22 23 25 26 28 30 32
48 53 54 51 48 46 45 46 47 48 49 49 48 47 46 44 44 42 41 40 40 41 42 43 44 44 44 44 43 43 43 43 43 44 46 46 47 47 48 49 51 55 54 51 48 42 38 39 41 42 41 38 35 33 35 33 29 29 29 29 32 32 30 26 22 23 23 25 28 28 27 27 28 29 26 24 23 23 23 23 24 26 27 29 32
50 52 53 53 51 49 48 48 49 49 50 50 50 49 47 46 45 44 42 41 40 41 42 43 43 43 43 43 42 41 41 40 41 41 43 45 46 46 47 47 49 55 58 55 53 49 44 43 43 43 42 39 36 36 37 32 29 32 33 32 34 33 31 27 23 24 25 26 28 28 29 29 29 29 27 26 25 25 25 24 25 27 29 30 32
57 55 54 54 53 52 51 50 51 51 51 50 50 49 48 47 46 45 43 42 40 40 42 42 42 43 43 42 41 40 39 39 39 40 41 43 44 45 46 47 48 53 58 58 57 54 50 47 46 44 43 41 39 38 36 33 32 34 35 34 33 31 30 28 26 26 28 29 30 31 31 30 30 30 30 29 28 26 26 26 27 29 31 31 31
63 60 59 57 55 53 51 51 52 52 51 50 50 49 48 48 46 45 44 42 41 41 42 42 42 43 43 42 41 39 38 37 38 39 40 41 43 44 45 47 48 51 57 59 58 57 53 51 48 46 46 42 38 38 37 35 36 36 35 34 32 29 30 31 30 31 32 32 31 30 31 31 32 33 32 32 30 28 28 27 27 30 31 31 31
62 61 60 59 56 54 52 53 53 53 52 51 50 49 49 48 47 46 44 43 42 42 42 42 43 43 43 42 41 40 38 38 38 38 39 41 42 43 44 46 48 51 56 59 60 59 56 53 51 49 48 43 38 39 39 37 37 38 37 36 33 31 33 35 36 35 34 32 31 30 30 32 35 35 32 31 32 32 30 28 28 30 30 30 31
56 55 55 55 55 54 53 54 54 53 52 51 51 49 49 49 47 46 45 43 43 43 43 43 43 44 44 42 41 40 39 38 38 38 39 41 42 42 43 45 48 51 55 60 62 62 58 53 51 51 49 44 40 41 41 39 38 38 40 40 38 35 35 37 38 36 35 34 33 32 32 34 37 36 33 32 35 36 34 31 31 30 30 30 31
52 51 52 51 52 52 52 53 53 52 51 51 51 50 50 49 48 47 46 45 44 43 44 43 44 45 44 43 41 41 40 38 38 38 39 41 42 42 42 43 47 50 54 60 62 64 60 52 49 51 50 45 44 43 42 41 38 38 40 42 42 40 37 37 38 37 37 36 36 36 36 37 38 38 36 36 38 39 37 35 34 33 31 31 33
52 52 52 51 51 51 51 51 51 51 51 51 51 51 51 50 49 48 47 46 45 45 45 44 45 45 45 43 42 41 40 39 38 39 39 41 42 43 43 42 45 49 54 59 63 64 63 55 48 49 50 48 47 46 43 41 39 39 39 39 41 41 37 37 39 39 40 39 39 40 38 38 39 39 39 40 39 39 39 38 37 36 34 33 34
55 55 54 52 51 51 51 51 50 50 51 51 52 52 51 50 50 49 48 47 47 46 46 46 46 46 45 44 43 41 41 40 40 40 40 41 42 44 45 43 43 47 52 57 62 65 63 58 51 49 51 51 49 48 45 41 39 40 40 40 40 40 39 39 41 41 43 44 44 43 41 40 42 42 43 42 40 39 40 41 41 39 36 35 36
57 56 55 54 52 52 52 52 50 50 50 51 52 52 52 51 51 50 49 49 48 47 47 47 47 47 46 45 43 42 40 41 41 41 40 41 42 43 46 46 43 44 49 54 60 63 59 55 53 51 52 53 51 50 47 42 39 40 41 42 43 43 44 46 45 44 44 45 45 44 44 45 45 44 42 40 39 40 42 43 42 40 38 37 37
59 58 57 55 54 53 53 53 51 50 50 51 52 52 52 52 52 51 51 50 49 48 48 48 48 48 47 46 44 43 41 41 42 42 40 40 40 41 45 48 46 42 45 51 56 59 56 52 52 52 51 51 50 51 50 45 41 40 41 42 44 47 49 50 48 45 45 44 43 43 45 48 48 45 42 40 40 41 42 42 42 41 40 40 39
60 60 58 57 56 55 55 55 53 51 50 51 52 53 53 53 52 52 51 50 49 49 49 49 49 49 48 47 45 44 43 43 42 42 41 39 38 39 42 46 48 44 43 48 54 57 55 53 54 54 51 47 47 48 49 47 45 43 43 44 45 48 50 50 48 46 43 42 41 43 46 49 48 46 44 43 42 42 42 43 43 41 42 42 41
59 61 61 59 57 56 56 56 55 53 51 51 52 53 53 53 53 52 52 51 50 50 50 50 50 50 49 47 46 46 45 44 44 42 41 39 38 38 39 43 48 45 41 45 52 56 56 55 55 55 52 48 46 46 46 45 46 46 47 48 48 50 52 50 49 46 43 41 41 43 47 48 48 47 46 45 44 44 44 44 44 43 43 43 43
55 58 60 61 60 58 57 57 56 55 53 52 52 53 54 54 53 53 52 51 51 51 51 51 51 50 49 48 47 47 47 46 45 43 41 39 38 37 38 40 46 46 41 43 50 55 57 56 55 55 54 52 50 47 46 45 45 46 49 50 49 51 53 51 49 48 47 47 45 44 45 47 46 47 46 45 43 44 45 45 45 45 44 44 44
55 55 56 58 61 61 59 58 57 57 55 53 52 53 54 54 54 53 53 52 52 52 52 52 51 51 50 50 48 48 48 47 46 45 42 40 37 37 37 37 43 46 43 43 48 55 59 56 53 54 55 55 51 47 46 47 47 47 48 49 49 50 51 50 49 48 48 50 48 43 42 43 44 45 45 44 43 42 43 45 46 45 45 46 45
55 54 53 55 59 61 61 59 59 58 57 55 54 53 54 54 54 54 53 53 53 53 53 52 52 52 51 51 49 48 48 47 47 46 43 41 38 36 37 36 40 44 42 43 47 55 61 57 52 53 55 56 53 49 47 47 48 48 48 48 48 49 50 51 52 52 51 52 48 43 42 43 44 45 45 44 43 43 44 46 47 47 47 46 46
55 54 53 53 55 57 60 61 60 59 58 57 55 54 55 55 55 54 54 53 53 53 53 52 52 53 53 52 50 49 49 48 47 47 45 43 39 36 36 35 37 41 40 41 47 55 60 55 51 53 56 56 56 54 50 48 47 48 48 47 46 47 49 51 51 51 51 52 49 45 45 45 44 44 45 45 45 45 47 47 48 48 49 49 48
56 55 54 54 53 54 57 60 61 60 59 58 57 56 56 55 55 55 54 54 53 53 53 53 53 54 54 54 52 50 50 49 48 49 48 45 40 35 35 34 36 40 40 40 46 55 58 52 48 52 55 55 54 54 51 48 46 47 46 44 43 45 48 50 50 49 49 51 49 47 45 43 42 44 46 47 47 47 49 50 50 51 53 53 52
55 55 54 54 53 53 54 57 60 60 60 59 58 57 56 56 55 55 54 54 54 54 53 53 54 54 55 55 54 52 51 50 50 50 49 47 42 36 34 34 35 40 43 42 46 55 58 52 48 50 53 53 53 52 50 48 47 47 45 42 43 46 49 50 51 50 49 50 50 47 44 42 42 43 46 47 48 50 51 52 53 55 56 56 55
56 55 54 54 53 52 52 54 57 59 60 59 59 58 57 56 56 56 55 55 55 54 54 54 55 55 56 56 55 53 52 51 51 51 50 49 44 37 34 34 35 39 46 47 48 55 59 54 48 49 51 50 53 54 51 48 47 46 44 43 45 48 51 53 54 52 50 51 50 48 46 45 43 43 46 49 51 52 52 54 57 58 58 56 55
58 57 56 55 54 54 53 53 55 58 59 59 59 58 57 57 57 56 56 56 55 55 55 55 55 56 56 57 56 55 54 52 52 52 51 50 46 39 34 33 34 38 46 51 52 54 58 54 49 51 50 46 49 55 54 51 48 45 44 46 48 50 52 55 56 55 54 53 52 50 48 45 43 46 50 52 53 54 54 56 58 58 57 55 52
58 58 57 56 56 55 54 54 55 56 58 59 59 58 57 57 57 57 57 56 56 56 55 55 56 56 57 58 57 57 55 53 53 52 52 51 48 42 35 32 34 37 43 52 56 56 58 55 51 53 52 45 43 50 55 55 53 50 49 50 51 51 53 56 58 57 56 54 51 49 48 46 46 49 52 52 52 53 53 55 57 55 54 54 52
57 57 57 56 56 56 55 55 55 56 57 58 58 58 58 58 57 57 57 57 57 56 56 56 56 57 58 58 58 58 56 55 54 53 52 51 49 44 38 32 32 36 42 49 56 59 59 57 52 52 54 50 45 47 53 56 53 51 51 51 52 52 53 56 58 60 59 56 54 51 48 48 48 50 52 54 53 53 53 55 57 55 54 56 55
56 55 56 57 57 57 57 56 56 56 57 57 58 58 58 58 58 58 58 58 58 57 57 57 57 58 59 59 59 59 58 56 54 53 52 51 48 46 41 33 30 35 41 47 54 58 60 58 54 50 53 54 50 46 49 55 58 56 53 50 50 51 52 53 56 59 62 61 59 56 51 49 50 50 51 54 54 53 52 53 55 56 56 56 55
57 56 57 57 57 57 57 57 56 56 57 57 58 58 58 58 58 58 59 59 58 58 58 58 58 59 59 60 60 60 59 58 56 54 53 51 48 45 42 36 30 31 39 46 51 57 60 60 56 52 52 55 54 48 44 50 61 65 61 55 51 50 50 50 51 55 60 62 63 61 57 53 53 53 53 53 53 52 52 53 55 56 57 56 55
59 58 58 58 57 57 57 56 56 56 56 57 58 58 58 58 58 59 59 59 59 59 59 59 59 60 60 60 61 61 61 59 57 55 53 51 48 45 42 39 32 29 35 43 50 56 61 63 60 57 55 56 58 56 48 46 53 63 67 64 58 53 50 48 49 52 55 59 62 63 62 58 56 57 56 55 54 54 55 56 57 58 57 57 55
59 59 60 60 59 59 59 58 57 57 57 57 58 58 58 58 58 59 59 59 59 60 60 60 60 61 61 61 62 61 61 60 58 56 54 52 49 45 41 39 35 30 32 40 47 54 61 66 66 63 61 59 60 61 58 52 50 55 64 68 62 55 52 50 49 50 51 54 58 61 62 61 58 58 59 59 58 59 60 61 61 59 57 57 55
58 59 60 60 60 60 60 60 59 59 58 58 58 58 58 58 58 59 59 59 60 60 60 61 61 62 62 62 63 62 62 61 60 58 56 54 51 47 41 38 37 34 31 36 44 51 58 65 69 69 68 67 66 65 64 61 56 53 58 66 65 58 56 56 53 51 50 51 56 60 60 59 59 59 60 61 62 63 63 63 62 60 58 56 56
57 59 60 60 60 61 61 60 60 60 59 59 59 59 59 59 59 59 59 59 60 61 61 62 62 63 63 63 63 63 62 61 61 60 58 56 53 49 43 38 36 35 34 35 40 48 55 61 67 71 73 73 71 70 68 66 64 59 56 62 67 66 62 60 58 55 52 50 53 59 62 60 59 60 62 63 65 66 65 65 63 61 59 58 57
58 60 60 60 60 61 61 61 61 60 60 60 60 60 60 60 59 59 59 60 61 61 62 63 64 64 64 64 64 63 63 62 62 61 60 58 56 52 46 40 36 35 36 37 39 44 51 57 63 69 73 75 73 71 70 69 68 67 63 61 64 68 67 63 60 58 55 51 50 55 61 63 62 61 62 63 64 66 67 66 65 64 64 63 62
58 60 60 59 59 60 61 62 61 61 60 60 61 61 60 60 60 60 60 60 61 62 63 64 65 65 65 64 64 63 63 63 62 62 62 60 59 56 51 44 38 35 36 39 42 45 49 54 60 65 70 75 75 72 70 69 69 71 71 67 65 69 70 66 64 61 59 55 51 52 57 63 64 64 63 62 62 65 66 66 67 68 68 68 67
59 60 60 60 60 61 62 62 61 61 61 61 61 61 61 61 61 61 61 61 62 63 64 64 65 65 65 65 65 64 64 63 63 63 63 62 61 58 54 49 43 38 35 38 43 48 51 53 57 61 65 70 75 76 73 71 70 70 71 69 68 70 72 70 67 64 61 58 56 54 56 60 64 66 67 65 63 63 64 65 67 67 67 67 66
61 61 61 61 61 62 62 62 61 60 60 60 61 61 61 62 62 62 62 62 63 64 65 65 65 66 66 66 65 65 65 65 64 64 64 64 63 61 57 53 48 43 38 37 41 48 54 56 57 59 61 63 68 73 75 74 72 72 71 68 67 70 72 71 69 67 62 59 58 58 58 60 62 66 67 65 63 62 63 63 64 63 64 65 65
62 62 61 61 61 62 62 61 61 61 61 61 62 62 62 62 62 63 63 63 64 65 65 66 66 66 66 66 66 66 66 66 66 65 65 65 65 63 60 57 53 48 43 40 40 44 52 59 61 60 60 61 63 68 72 74 73 73 73 70 67 68 70 70 69 68 65 61 58 58 60 62 63 65 65 63 63 63 63 62 62 62 64 65 65
64 63 62 62 61 61 62 62 62 62 62 62 62 63 63 63 63 63 64 64 65 65 66 66 66 66 66 67 67 68 68 68 68 67 67 67 66 65 63 60 56 52 48 45 43 44 48 56 63 64 62 61 62 65 69 72 74 74 74 73 70 68 69 69 69 70 69 66 62 60 61 64 66 66 66 67 68 68 66 64 64 65 66 67 66
64 64 63 62 62 62 62 62 62 62 62 62 63 63 63 63 63 64 64 65 65 66 66 66 67 67 68 69 69 70 70 70 69 69 69 69 67 66 64 62 60 56 52 48 46 46 47 51 59 65 66 64 63 64 67 71 74 75 75 75 73 71 70 70 71 72 72 71 68 65 63 65 67 67 67 69 70 71 70 69 68 68 68 68 67
64 63 62 62 62 62 62 62 62 62 62 62 63 63 63 64 64 65 65 65 66 66 67 68 68 69 70 71 72 72 72 72 72 71 71 70 69 67 66 64 63 60 56 52 48 48 49 51 54 61 67 68 67 66 67 70 75 77 78 77 75 73 72 72 73 74 75 74 73 71 67 66 68 68 67 67 68 69 70 70 69 69 69 68 67
62 61 61 61 61 62 62 62 62 62 62 63 63 64 64 64 65 65 66 66 67 67 68 69 70 71 72 73 73 74 74 74 74 73 73 71 70 69 68 67 65 62 59 55 51 49 50 52 53 57 63 69 71 69 68 69 73 78 80 80 79 76 73 73 74 75 76 76 76 75 72 70 70 69 68 68 68 68 69 70 70 71 71 71 70
62 61 61 61 62 62 62 61 62 62 62 63 63 64 64 65 66 66 67 68 69 69 70 71 72 73 74 75 76 76 76 76 76 75 74 73 72 71 70 68 66 63 60 56 53 50 50 52 54 56 59 66 72 73 72 70 72 76 80 82 82 79 76 75 76 76 76 78 79 79 77 76 75 74 73 73 73 72 72 73 73 73 75 75 75
62 61 61 61 61 62 61 61 61 62 62 63 63 64 65 66 67 68 69 69 70 71 72 73 74 75 76 76 77 78 78 77 77 76 76 75 73 72 70 68 65 62 59 56 54 52 51 52 54 56 58 62 69 74 75 74 73 75 79 82 83 82 80 78 78 77 77 78 79 81 81 81 80 79 77 77 76 75 75 76 77 78 79 80 80
61 61 60 60 60 60 61 61 62 62 63 63 64 65 66 67 68 69 70 71 72 73 74 75 76 77 78 78 79 79 79 79 78 78 77 75 73 71 68 66 63 61 59 57 55 54 53 53 54 56 57 60 64 71 76 78 76 75 77 81 83 84 83 82 80 79 78 78 79 80 82 83 83 82 81 79 78 77 78 79 80 81 82 83 83
59 59 59 59 59 60 61 61 62 62 63 64 65 66 67 68 69 70 72 73 74 75 76 77 78 79 79 80 80 80 80 79 78 77 75 73 71 69 67 64 63 61 59 58 57 56 56 55 55 56 58 59 62 66 73 78 80 79 78 79 82 85 85 84 83 81 81 80 79 80 82 84 85 84 84 82 81 80 81 82 83 84 85 86 86
57 57 57 58 59 60 60 61 62 63 64 65 66 67 68 69 71 72 73 74 76 77 78 79 79 80 80 80 81 81 80 79 77 75 74 72 71 69 67 66 64 62 61 60 59 58 58 58 58 58 58 59 61 63 68 74 80 83 82 81 82 84 86 87 86 83 82 81 82 82 82 84 85 85 85 85 84 83 83 83 84 86 87 87 87
56 57 57 58 59 60 61 62 63 64 65 66 67 68 70 71 72 73 75 76 77 78 79 80 80 81 80 80 79 79 78 77 76 74 73 72 71 70 69 68 66 65 63 62 61 61 61 61 61 61 61 61 62 63 65 69 75 81 85 85 84 84 86 88 89 88 85 81 81 83 84 84 84 85 86 86 86 86 85 85 85 86 87 87 87
57 58 58 59 60 61 62 63 64 65 66 67 69 70 71 72 73 75 76 77 78 79 80 80 80 80 79 78 77 76 76 75 75 74 72 70 69 68 66 65 64 63 62 62 61 61 62 63 64 64 64 64 64 65 66 68 71 76 82 86 87 87 88 89 90 92 91 87 83 82 83 84 85 85 86 87 87 87 87 87 87 87 88 88 88
58 59 60 61 61 62 63 64 65 66 68 69 70 71 72 73 74 76 77 78 78 79 79 79 78 77 77 76 75 74 73 73 71 70 69 67 64 62 61 60 60 59 59 59 59 59 60 62 64 65 66 67 67 68 68 69 70 73 77 83 87 90 91 91 91 92 94 95 91 87 85 84 84 85 86 87 89 89 89 89 89 90 90 90 90
59 60 61 62 63 64 65 66 67 68 69 70 71 72 73 74 75 76 76 77 76 76 76 76 76 75 74 74 73 71 69 67 65 63 62 62 61 59 57 56 55 55 55 56 57 57 58 59 61 63 65 66 68 69 70 71 72 73 75 79 84 89 92 94 94 94 95 97 98 96 92 89 87 86 85 85 87 89 90 91 92 92 93 93 93
Wind_Direction
253 257 258 257 258 260 259 258 259 261 261 260 260 260 261 262 262 263 264 266 269 272 275 278 279 280 281 280 278 277 275 273 273 272 270 270 268 262 261 259 246 239 243 248 251 250 250 254 250 242 240 248 265 272 262 260 265 269 277 280 275 274 280 284 295 295 282 282 292 295 293 293 294 294 295 297 298 299 301 303 305 306 309 312 314
254 256 255 254 256 257 257 257 258 258 259 259 258 258 258 260 262 263 264 267 271 275 276 278 279 280 279 278 276 275 274 273 272 271 267 266 266 261 259 258 248 242 243 242 245 249 248 250 246 239 241 249 262 267 257 257 263 267 274 275 269 273 280 286 293 288 277 278 286 288 286 288 292 292 292 295 298 299 301 303 305 306 309 313 315
255 255 254 254 254 254 255 257 257 256 257 256 255 256 258 260 262 262 262 263 266 268 270 273 275 278 279 279 277 275 274 273 272 271 268 265 264 262 258 254 245 240 240 239 241 244 244 246 244 241 245 251 260 263 256 257 260 264 269 263 260 267 275 284 285 278 276 277 281 283 280 281 288 291 290 291 294 297 300 302 303 306 310 313 316
254 252 251 252 252 252 254 255 255 255 255 255 255 256 260 263 263 263 263 263 263 265 269 273 277 281 283 282 280 278 276 274 273 272 270 267 263 260 257 252 243 236 235 237 237 236 239 245 247 248 251 256 261 258 255 256 255 258 261 255 256 262 267 275 274 269 274 277 280 281 277 277 283 288 287 287 291 294 297 301 304 306 310 313 315
250 248 247 250 252 252 253 255 255 254 253 254 256 258 261 263 264 265 266 267 269 271 275 279 283 287 289 288 286 284 281 278 276 273 271 269 265 260 256 252 244 236 232 234 234 230 234 243 248 250 252 254 255 253 254 254 249 252 257 253 253 258 264 271 269 264 268 274 279 281 278 275 278 283 283 284 290 292 294 300 303 306 309 312 314
247 247 248 251 254 256 256 256 255 254 253 254 256 258 261 263 265 266 268 270 273 276 280 284 288 292 294 293 292 290 287 284 280 276 272 269 266 262 257 250 244 237 232 233 234 230 233 241 246 248 248 247 248 252 254 249 243 252 257 252 251 255 262 265 258 257 266 272 274 277 278 275 274 278 279 281 287 290 292 296 301 305 308 311 313
246 248 251 254 256 257 257 255 254 254 253 254 255 258 260 263 265 267 269 271 275 278 282 286 290 294 295 295 295 293 290 287 283 279 274 269 265 262 257 251 244 237 233 233 233 232 235 241 245 245 242 243 247 251 250 242 241 251 253 249 250 254 259 260 254 257 268 274 273 272 274 272 273 278 281 281 282 287 292 295 299 303 305 308 311
246 249 253 255 256 256 255 254 253 253 254 255 256 258 261 263 265 267 269 272 276 279 282 286 290 294 296 296 295 295 293 290 286 282 277 272 267 262 257 252 245 237 233 231 232 233 235 240 243 242 241 242 245 246 244 240 240 246 247 246 248 251 254 258 259 265 273 277 274 272 271 270 272 277 284 285 280 284 290 292 295 298 301 306 310
248 250 252 254 254 254 253 252 252 253 255 256 257 259 261 263 265 267 270 273 276 280 283 286 290 294 296 296 296 297 296 294 290 286 282 277 271 264 257 252 247 239 233 229 230 232 235 239 241 241 241 239 238 239 240 240 240 241 243 244 246 251 254 256 260 268 274 276 275 273 269 266 267 271 279 282 279 283 288 288 290 294 297 304 309
249 250 251 252 252 251 250 251 252 254 256 257 258 260 262 264 266 268 271 273 277 280 283 287 291 294 296 296 297 298 298 296 291 287 284 280 274 268 260 253 248 242 234 228 228 230 233 239 241 239 238 234 232 234 236 239 240 239 241 243 245 250 254 255 258 266 273 276 274 271 267 265 265 269 274 277 280 283 284 284 287 290 294 302 308
248 248 249 249 249 249 249 251 253 255 257 258 259 260 262 264 266 269 271 274 277 280 283 287 291 294 295 296 297 298 298 296 291 286 282 279 276 272 264 255 248 243 235 228 226 229 232 236 240 239 235 230 228 231 233 236 239 238 239 244 247 249 255 256 257 265 274 277 274 269 268 269 268 269 273 278 282 281 279 280 284 287 293 301 307
245 246 247 247 247 248 249 252 255 257 258 259 259 260 262 264 267 269 271 274 277 280 283 286 290 293 295 295 296 297 297 296 293 288 283 278 275 272 268 260 250 243 237 230 226 228 231 233 239 239 233 228 227 229 232 235 238 238 237 241 244 247 253 258 259 267 277 278 273 268 268 271 270 269 273 278 280 280 278 278 281 283 289 299 305
244 245 246 246 246 247 250 253 256 258 259 259 260 261 262 264 266 269 271 274 277 280 283 286 289 292 294 295 296 297 297 297 296 291 285 279 274 270 268 263 254 245 239 232 227 228 230 232 237 238 232 227 227 229 232 234 236 237 236 236 238 241 248 256 262 269 276 275 270 266 266 269 269 270 274 277 279 280 280 280 281 280 285 295 302
244 245 246 246 246 247 249 253 257 259 260 260 261 261 262 264 266 269 271 274 277 280 283 285 289 292 294 294 296 297 299 300 299 293 286 280 275 269 265 263 258 247 240 235 229 227 229 230 232 233 230 227 227 229 232 232 233 235 236 236 237 242 248 255 263 268 272 271 268 265 266 268 268 268 272 275 279 281 281 283 282 278 280 291 298
244 244 245 245 246 247 249 253 257 260 261 262 261 261 262 263 266 269 271 273 277 280 282 285 289 292 293 294 296 299 300 301 300 295 289 284 278 270 264 260 257 249 241 237 231 226 226 225 226 227 227 226 227 229 232 231 231 233 237 238 239 243 249 254 260 264 266 265 263 263 264 266 265 265 269 274 277 279 279 282 282 277 276 284 293
244 244 245 245 246 247 249 252 256 260 262 263 262 262 262 264 266 268 271 274 277 280 282 285 288 291 293 295 298 300 301 301 300 297 293 290 285 276 265 258 255 251 244 237 230 225 222 221 222 222 223 224 226 229 231 230 230 231 235 238 239 242 247 252 256 259 261 260 260 262 263 265 264 263 268 274 275 276 277 279 280 276 274 280 288
246 245 245 245 246 247 248 251 255 258 262 263 263 263 263 264 266 268 271 274 277 279 282 285 288 292 294 296 299 301 302 302 301 299 296 294 291 282 270 259 255 252 243 235 229 223 219 219 220 221 222 222 222 224 226 227 230 232 235 238 240 243 247 250 253 255 255 257 262 262 261 262 262 262 267 272 272 273 274 275 276 276 275 279 286
249 248 247 246 246 248 249 250 253 257 261 264 264 263 263 264 266 269 272 274 277 279 282 285 289 292 294 297 299 301 303 303 303 302 300 297 294 287 274 261 255 250 240 234 230 223 217 217 219 221 222 221 220 222 225 227 230 234 236 238 240 244 248 250 251 250 249 254 261 262 259 259 260 262 266 268 270 272 273 273 274 274 275 279 285
251 252 251 249 248 248 249 250 253 256 259 263 265 264 264 264 267 269 272 274 277 279 282 286 289 292 295 297 299 301 303 304 305 305 303 301 298 291 279 264 253 249 241 236 233 224 216 216 217 219 221 220 219 221 225 227 229 232 235 236 237 240 244 247 248 248 247 251 256 258 256 256 259 261 265 268 271 274 275 274 273 274 276 279 283
252 253 254 253 251 250 250 251 253 256 259 262 265 265 265 265 267 270 272 275 277 280 283 287 290 292 295 297 299 301 303 305 307 308 307 304 302 295 284 268 253 246 240 235 231 222 216 215 217 218 219 219 217 217 219 222 226 229 232 234 234 236 239 243 246 247 248 250 252 254 255 258 262 264 267 270 272 275 275 273 272 274 277 280 283
253 254 256 256 255 253 252 251 253 256 258 262 264 266 266 266 268 270 272 275 277 280 283 287 289 292 294 296 299 301 304 307 309 311 310 307 305 299 288 272 253 242 235 232 228 219 214 215 218 219 220 219 218 218 217 219 224 228 231 234 237 239 240 242 244 245 246 246 248 254 260 264 266 267 268 270 271 272 273 271 272 276 279 281 284
255 256 257 257 258 257 255 253 253 255 258 261 264 266 266 267 268 270 273 275 277 280 283 286 288 291 293 296 299 301 305 308 310 313 313 310 308 302 291 274 255 238 228 226 224 217 213 214 216 220 222 221 221 220 218 218 223 228 231 234 238 240 241 241 241 241 242 243 248 256 262 266 268 268 269 271 270 270 270 270 272 277 280 282 284
257 258 258 258 258 258 257 255 254 255 257 260 263 265 267 267 268 270 272 274 276 279 282 285 287 290 293 295 298 302 305 308 311 314 315 313 310 306 294 277 256 236 223 220 219 214 213 213 214 218 222 223 223 221 218 218 223 226 229 232 235 237 238 239 239 240 241 243 247 253 257 262 266 265 266 268 269 269 269 271 274 277 280 281 283
258 258 259 260 260 260 260 258 256 255 257 260 263 265 266 268 268 269 271 273 276 278 281 284 287 289 292 295 298 301 305 308 311 313 316 315 312 308 297 280 259 238 224 218 216 214 213 214 215 218 221 225 225 221 218 218 221 223 227 232 237 238 238 239 239 240 241 243 245 249 254 260 261 258 258 262 265 268 271 273 275 277 279 279 281
258 259 260 261 262 262 262 260 258 256 257 259 262 264 266 267 268 269 270 272 275 278 280 283 286 289 292 294 297 301 304 308 311 313 315 316 313 309 301 285 263 242 227 220 216 214 213 215 218 219 220 225 227 223 220 220 222 225 229 235 240 242 241 240 238 239 241 243 246 249 253 258 257 253 254 259 264 268 273 274 274 275 275 276 278
257 258 260 261 261 262 262 262 260 258 258 259 261 264 266 267 268 268 270 272 274 277 280 283 286 288 291 293 296 300 303 307 310 312 314 316 315 310 304 290 267 246 231 223 218 215 214 215 219 220 219 222 227 225 222 224 226 229 231 234 238 242 243 242 240 238 240 243 246 248 251 256 255 252 254 260 263 267 270 272 271 271 272 274 277
257 258 259 259 260 261 262 262 261 260 259 260 261 264 266 267 268 268 270 272 274 277 280 282 285 287 290 292 295 299 302 305 308 311 312 315 315 311 306 295 271 250 235 226 221 217 215 215 218 221 220 220 224 225 225 224 225 228 231 232 234 237 240 242 241 238 238 242 244 246 250 256 255 253 257 259 261 263 265 269 271 272 272 275 278
256 258 258 259 260 261 262 262 262 261 261 261 262 264 266 267 268 269 270 272 274 277 279 281 284 286 289 292 295 297 301 304 306 309 311 313 314 312 307 299 278 254 240 231 224 219 215 214 217 221 220 220 221 225 228 227 223 225 231 233 233 236 239 242 242 240 239 242 244 245 249 253 252 254 257 257 259 262 262 264 269 271 272 274 276
254 256 258 259 261 261 262 263 263 263 262 262 263 264 266 267 268 270 271 273 274 276 279 281 283 286 288 291 294 296 299 302 304 307 309 311 313 312 308 302 286 260 244 235 228 221 216 214 216 219 219 220 221 223 229 231 226 225 229 234 236 238 239 241 243 244 244 245 246 246 249 251 251 254 256 254 255 258 259 261 266 269 270 272 275
253 255 258 260 261 262 263 263 264 263 263 263 263 265 266 268 269 270 271 273 275 277 279 281 283 285 288 290 292 295 297 300 302 305 306 308 310 311 308 302 291 268 248 240 234 226 219 215 215 217 219 220 222 224 228 232 229 227 229 234 236 238 238 239 242 245 247 248 249 250 251 251 251 253 255 253 253 255 257 261 266 269 271 272 273
254 256 258 260 261 262 263 263 264 264 263 263 264 265 267 268 270 271 272 273 275 277 279 281 283 285 287 289 291 294 296 298 301 303 304 306 307 308 307 302 294 277 253 242 239 233 225 219 218 218 221 223 224 227 229 232 231 230 231 233 234 236 237 239 241 243 244 245 248 249 250 249 250 252 254 255 255 256 258 262 265 268 271 271 271
255 257 259 260 261 262 263 263 264 264 264 264 265 266 267 269 270 271 272 274 275 277 279 280 282 284 286 288 290 293 295 297 299 301 302 303 305 305 305 301 294 283 263 247 242 239 233 228 224 223 225 227 229 230 232 233 233 233 233 233 233 237 240 241 242 244 243 242 243 245 245 246 248 251 253 254 255 257 259 262 265 267 269 269 269
256 258 259 260 262 263 263 264 265 265 265 265 265 266 267 269 270 272 273 274 275 277 279 280 282 284 286 288 290 292 294 296 297 299 300 301 302 302 302 300 295 286 272 256 245 242 240 236 232 229 228 231 233 234 234 234 233 234 234 233 234 237 241 243 243 244 245 245 245 244 244 244 247 250 252 253 255 257 259 262 264 266 267 267 267
256 258 259 261 263 264 264 265 265 266 266 266 266 266 268 269 271 272 273 274 276 277 279 280 282 284 286 288 290 291 293 294 296 298 299 300 301 301 299 298 294 287 276 264 252 245 243 241 238 235 232 232 234 235 234 233 233 233 234 235 234 234 238 243 245 244 244 246 247 246 244 244 247 250 252 254 256 258 259 261 263 265 265 266 267
258 259 261 262 263 264 264 265 265 266 267 267 267 268 269 270 271 272 273 274 276 278 279 280 282 284 285 287 289 290 292 293 295 296 297 298 299 299 298 296 293 288 279 268 257 250 246 244 242 240 237 235 236 236 234 233 233 233 234 235 233 232 235 242 245 246 244 243 245 246 244 244 246 248 250 254 257 259 259 261 262 263 264 265 267
260 261 262 263 263 264 264 265 266 267 268 268 268 269 270 270 271 272 273 274 276 277 279 280 282 284 285 287 288 290 291 292 294 295 295 296 297 297 296 295 292 288 281 272 261 253 248 246 245 243 241 240 239 238 236 234 233 233 234 235 233 232 235 239 242 244 245 244 244 245 244 244 246 247 248 251 254 257 259 260 261 262 262 264 266
260 262 263 264 264 264 265 266 267 268 268 268 269 269 270 270 271 272 274 275 276 277 279 280 282 283 285 286 288 289 290 291 292 293 294 294 295 295 294 294 292 288 282 275 265 256 250 247 246 245 244 243 241 240 237 235 233 232 233 233 232 231 234 238 240 242 242 243 244 244 243 245 246 247 247 247 249 252 255 257 259 260 262 263 265
260 262 264 265 265 265 265 266 266 267 267 268 269 269 270 271 272 273 274 275 276 277 279 280 282 283 285 286 287 289 289 290 291 291 292 293 293 293 292 292 290 288 284 278 268 259 252 247 245 245 245 245 243 241 238 235 233 231 230 231 231 231 233 236 238 239 238 239 240 241 241 243 245 246 245 243 244 248 252 255 258 260 263 264 266
261 263 265 266 266 266 266 266 266 266 267 268 269 270 271 272 273 274 275 276 277 278 279 281 282 283 285 286 287 288 288 289 290 290 291 291 291 291 291 290 289 287 284 280 271 262 254 249 245 244 244 244 243 242 239 235 232 230 229 228 229 230 232 234 236 238 236 236 237 238 237 239 243 244 243 241 242 245 249 254 259 262 264 265 267
262 264 265 266 266 266 266 266 267 267 268 268 269 270 271 272 273 274 275 276 278 279 280 281 282 283 285 285 286 287 287 288 289 289 290 290 290 290 289 289 289 287 284 280 273 263 255 251 247 243 242 243 243 242 240 236 232 229 228 228 228 230 232 233 235 237 237 236 236 237 237 238 240 243 244 244 245 247 250 254 259 262 263 265 266
263 265 266 267 267 267 267 267 268 269 269 269 270 271 272 273 274 275 276 277 278 279 280 281 282 283 284 285 285 286 287 288 288 289 289 289 288 288 288 288 287 286 284 279 273 264 255 251 249 245 242 242 241 241 240 237 234 230 228 228 229 230 231 233 235 237 238 237 237 237 238 238 239 241 244 246 248 251 253 255 258 260 262 263 264
265 266 267 268 268 268 268 268 269 269 270 270 271 272 272 273 274 275 276 277 278 279 280 281 282 283 284 285 285 286 287 287 287 287 288 288 288 287 287 287 286 285 283 278 272 264 256 251 249 247 243 241 240 240 240 238 236 233 230 229 229 230 231 232 234 237 239 239 238 237 238 239 241 243 245 248 250 252 254 256 258 260 262 262 263
267 267 268 268 268 269 269 270 270 270 271 272 272 273 274 274 275 276 277 278 279 280 280 281 282 283 284 284 285 286 286 286 287 287 287 287 287 286 286 285 284 282 280 276 271 264 257 251 249 247 245 242 240 239 240 239 237 235 233 231 231 232 232 233 234 236 239 240 240 238 239 241 243 246 249 251 252 253 255 256 257 259 260 261 262
267 267 268 268 269 270 270 271 271 272 272 273 274 274 275 276 277 277 278 279 279 280 281 282 282 283 284 284 285 286 286 286 287 287 287 286 286 285 284 283 282 280 277 274 270 264 258 252 248 247 246 244 241 239 239 239 238 236 234 233 233 233 234 235 236 237 239 241 242 241 241 242 244 247 250 252 254 255 256 257 257 258 259 261 263
267 267 268 269 269 270 271 272 272 273 273 274 275 276 276 277 278 278 279 280 281 281 282 283 283 284 284 285 286 286 286 287 287 287 286 286 285 284 282 281 279 277 275 272 268 264 259 254 249 247 246 246 244 240 238 238 239 238 236 235 234 234 235 236 237 239 240 241 243 243 243 243 245 247 249 251 253 255 256 257 258 258 259 261 262
267 268 268 269 270 270 271 272 273 273 274 275 275 276 277 278 278 279 280 281 282 283 283 284 284 285 286 286 286 287 287 287 287 286 286 285 284 283 282 280 277 275 273 270 267 264 260 256 251 247 245 246 246 243 240 238 237 238 238 237 235 234 235 236 236 238 240 241 243 244 245 246 246 247 248 249 251 252 254 255 256 257 259 260 261
267 268 269 269 270 270 271 272 273 274 275 275 276 277 278 278 279 280 281 282 283 283 284 284 285 286 286 287 287 288 288 288 287 287 287 286 285 283 282 280 277 274 271 268 265 262 260 257 253 249 246 244 244 245 243 240 238 237 238 238 237 235 235 235 235 236 238 240 242 243 245 246 247 247 248 248 249 251 252 253 255 256 257 259 260
268 268 269 269 270 271 271 272 273 274 275 276 277 278 279 280 280 281 282 283 283 284 284 285 286 286 287 288 288 288 288 288 288 287 286 285 284 283 281 279 277 274 272 268 265 261 259 256 254 251 248 245 243 243 244 243 240 238 237 237 238 237 236 236 235 235 236 238 240 242 243 244 246 247 247 248 249 250 251 252 253 254 256 257 258
269 269 270 270 271 272 273 274 275 275 276 277 278 279 280 281 281 282 283 283 284 285 286 287 287 288 288 288 288 288 288 288 288 287 286 285 283 282 280 278 276 274 271 268 265 261 258 255 253 252 249 247 244 242 242 242 242 240 238 237 237 237 237 237 236 236 235 236 237 239 240 242 244 245 246 247 248 249 250 250 252 253 254 256 257
269 270 271 272 273 274 274 275 276 277 278 278 279 280 281 281 282 283 284 285 286 287 287 288 288 288 289 289 289 289 289 289 289 288 287 286 284 282 280 278 275 273 271 268 265 262 259 255 253 251 249 248 246 244 242 240 240 241 240 238 237 237 237 238 237 237 237 237 237 237 238 240 242 244 246 246 247 248 249 249 251 252 254 255 256
270 271 272 273 274 274 275 276 277 278 278 279 280 281 281 282 283 284 285 286 286 287 288 288 289 289 290 291 291 291 290 290 289 288 287 286 285 283 281 278 276 273 271 268 266 263 260 256 254 252 250 248 247 245 243 241 239 239 239 239 239 237 237 237 237 238 238 238 238 238 238 239 241 243 245 247 248 248 249 249 250 251 253 254 255